When you browse on this site, cookies collect data to enhance your experience and personalize the content and advertising you see.
Visit our Privacy Policy to learn more. By continuing to use the site, you agree to this use of cookies and data.
  • în România
  • Lista ţărilor
  • Pe 7 zile
  • Temperatura apei
  • Hartă satelitară
  • Meteo pe hartă
  • Widget-uri
  • user-avatar
    Intrare

    Meteo pe oră la Abancay

    Astăzi, 16 Iulie, Marţi

    Timp Temperatura Precipitaţii Vânt Presiune Umiditate
    00:00 +12°C° 0 mm 1 m/s 544 mmHg 90%
    01:00 +12°C° 0 mm 1 m/s 544 mmHg 90%
    02:00 +12°C° 0.1 mm 1 m/s 544 mmHg 91%
    03:00 +11°C° 0.1 mm 1 m/s 543 mmHg 91%
    04:00 +11°C° 0.1 mm 1 m/s 543 mmHg 92%
    05:00 +11°C° 0 mm 1 m/s 543 mmHg 90%
    06:00 +10°C° 0 mm 0 m/s 544 mmHg 88%
    07:00 +11°C° 0 mm 0 m/s 544 mmHg 85%
    08:00 +13°C° 0 mm 1 m/s 545 mmHg 75%
    09:00 +15°C° 0 mm 1 m/s 546 mmHg 65%
    10:00 +17°C° 0 mm 2 m/s 547 mmHg 55%
    11:00 +18°C° 0.1 mm 2 m/s 547 mmHg 52%
    12:00 +19°C° 0.1 mm 3 m/s 547 mmHg 49%
    13:00 +19°C° 0.1 mm 3 m/s 546 mmHg 46%
    14:00 +19°C° 0.5 mm 3 m/s 546 mmHg 52%
    15:00 +18°C° 0.5 mm 3 m/s 545 mmHg 57%
    16:00 +17°C° 0.5 mm 3 m/s 544 mmHg 62%
    17:00 +16°C° 0.5 mm 3 m/s 544 mmHg 71%
    18:00 +14°C° 0.5 mm 2 m/s 544 mmHg 81%
    19:00 +12°C° 0.5 mm 1 m/s 544 mmHg 90%
    20:00 +12°C° 0 mm 1 m/s 544 mmHg 92%
    21:00 +11°C° 0 mm 1 m/s 544 mmHg 94%
    22:00 +11°C° 0 mm 1 m/s 544 mmHg 96%
    23:00 +11°C° 0 mm 1 m/s 544 mmHg 95%

    Mâine, 17 Iulie, Miercuri

    Timp Temperatura Precipitaţii Vânt Presiune Umiditate
    00:00 +11°C° 0 mm 1 m/s 544 mmHg 94%
    01:00 +11°C° 0 mm 1 m/s 544 mmHg 94%
    02:00 +11°C° 0.1 mm 1 m/s 544 mmHg 93%
    03:00 +11°C° 0.1 mm 1 m/s 544 mmHg 93%
    04:00 +11°C° 0.1 mm 1 m/s 544 mmHg 93%
    05:00 +11°C° 0.3 mm 1 m/s 544 mmHg 92%
    06:00 +11°C° 0.3 mm 1 m/s 544 mmHg 92%
    07:00 +11°C° 0.3 mm 1 m/s 545 mmHg 92%
    08:00 +11°C° 0.3 mm 1 m/s 545 mmHg 90%
    09:00 +12°C° 0.3 mm 1 m/s 545 mmHg 87%
    10:00 +12°C° 0.3 mm 1 m/s 545 mmHg 85%
    11:00 +13°C° 0.3 mm 1 m/s 545 mmHg 82%
    12:00 +13°C° 0.3 mm 2 m/s 545 mmHg 79%
    13:00 +14°C° 0.3 mm 2 m/s 545 mmHg 76%
    14:00 +13°C° 0.6 mm 2 m/s 545 mmHg 79%
    15:00 +13°C° 0.6 mm 2 m/s 544 mmHg 82%
    16:00 +12°C° 0.6 mm 1 m/s 543 mmHg 85%
    17:00 +12°C° 0 mm 1 m/s 543 mmHg 87%
    18:00 +11°C° 0 mm 1 m/s 543 mmHg 89%
    19:00 +9°C° 0 mm 0 m/s 544 mmHg 90%
    20:00 +9°C° 0 mm 0 m/s 544 mmHg 90%
    21:00 +9°C° 0 mm 0 m/s 544 mmHg 90%
    22:00 +9°C° 0 mm 0 m/s 545 mmHg 91%
    23:00 +9°C° 0 mm 0 m/s 545 mmHg 90%

    Poimâine, 18 Iulie, Joi

    Timp Temperatura Precipitaţii Vânt Presiune Umiditate
    00:00 +10°C° 0 mm 1 m/s 545 mmHg 90%
    01:00 +11°C° 0 mm 1 m/s 545 mmHg 89%
    02:00 +10°C° 0.1 mm 1 m/s 545 mmHg 89%
    03:00 +10°C° 0.1 mm 1 m/s 544 mmHg 89%
    04:00 +10°C° 0.1 mm 1 m/s 544 mmHg 89%
    05:00 +10°C° 0 mm 1 m/s 545 mmHg 88%
    06:00 +10°C° 0 mm 1 m/s 545 mmHg 87%
    07:00 +10°C° 0 mm 1 m/s 545 mmHg 86%
    08:00 +12°C° 0 mm 1 m/s 546 mmHg 79%
    09:00 +13°C° 0 mm 1 m/s 547 mmHg 71%
    10:00 +14°C° 0 mm 0 m/s 547 mmHg 64%
    11:00 +16°C° 0.1 mm 1 m/s 547 mmHg 60%
    12:00 +17°C° 0.1 mm 2 m/s 547 mmHg 55%
    13:00 +18°C° 0.1 mm 2 m/s 547 mmHg 50%
    14:00 +18°C° 0.2 mm 2 m/s 547 mmHg 50%
    15:00 +18°C° 0.2 mm 2 m/s 546 mmHg 50%
    16:00 +18°C° 0.2 mm 2 m/s 546 mmHg 50%
    17:00 +16°C° 0 mm 2 m/s 545 mmHg 60%
    18:00 +14°C° 0 mm 2 m/s 544 mmHg 71%
    19:00 +12°C° 0 mm 1 m/s 543 mmHg 81%
    20:00 +11°C° 0 mm 1 m/s 543 mmHg 85%
    21:00 +11°C° 0 mm 1 m/s 544 mmHg 88%
    22:00 +10°C° 0 mm 1 m/s 544 mmHg 91%
    23:00 +10°C° 0 mm 1 m/s 544 mmHg 92%

    19 Iulie, Vineri

    Timp Temperatura Precipitaţii Vânt Presiune Umiditate
    00:00 +11°C° 0 mm 1 m/s 544 mmHg 92%
    01:00 +11°C° 0 mm 1 m/s 544 mmHg 93%
    02:00 +10°C° 0 mm 0 m/s 544 mmHg 92%
    03:00 +10°C° 0 mm 0 m/s 544 mmHg 91%
    04:00 +10°C° 0 mm 0 m/s 544 mmHg 90%
    05:00 +10°C° 0 mm 0 m/s 544 mmHg 88%
    06:00 +10°C° 0 mm 0 m/s 544 mmHg 87%
    07:00 +10°C° 0 mm 0 m/s 545 mmHg 85%
    08:00 +13°C° 0 mm 1 m/s 545 mmHg 78%
    09:00 +14°C° 0 mm 1 m/s 546 mmHg 70%
    10:00 +15°C° 0 mm 1 m/s 547 mmHg 63%
    11:00 +16°C° 0.1 mm 2 m/s 547 mmHg 60%
    12:00 +17°C° 0.1 mm 2 m/s 546 mmHg 56%
    13:00 +18°C° 0.1 mm 2 m/s 546 mmHg 53%
    14:00 +18°C° 0.5 mm 2 m/s 546 mmHg 54%
    15:00 +18°C° 0.5 mm 3 m/s 545 mmHg 56%
    16:00 +18°C° 0.5 mm 3 m/s 545 mmHg 58%
    17:00 +16°C° 0.8 mm 2 m/s 544 mmHg 69%
    18:00 +14°C° 0.8 mm 2 m/s 544 mmHg 79%
    19:00 +12°C° 0.8 mm 1 m/s 543 mmHg 90%
    20:00 +11°C° 0 mm 1 m/s 543 mmHg 91%
    21:00 +11°C° 0 mm 1 m/s 543 mmHg 92%
    22:00 +11°C° 0 mm 1 m/s 544 mmHg 93%
    23:00 +11°C° 0 mm 1 m/s 543 mmHg 93%

    20 Iulie, Sâmbătă

    Timp Temperatura Precipitaţii Vânt Presiune Umiditate
    00:00 +11°C° 0 mm 1 m/s 543 mmHg 93%
    01:00 +11°C° 0 mm 1 m/s 543 mmHg 93%
    02:00 +11°C° 0 mm 1 m/s 543 mmHg 92%
    03:00 +11°C° 0 mm 1 m/s 543 mmHg 91%
    04:00 +10°C° 0 mm 0 m/s 543 mmHg 90%
    05:00 +10°C° 0 mm 0 m/s 543 mmHg 88%
    06:00 +10°C° 0 mm 0 m/s 544 mmHg 86%
    07:00 +10°C° 0 mm 0 m/s 544 mmHg 85%
    08:00 +12°C° 0 mm 0 m/s 545 mmHg 78%
    09:00 +13°C° 0 mm 0 m/s 546 mmHg 71%
    10:00 +14°C° 0 mm 0 m/s 546 mmHg 64%
    11:00 +16°C° 0.3 mm 1 m/s 546 mmHg 60%
    12:00 +17°C° 0.3 mm 2 m/s 546 mmHg 56%
    13:00 +18°C° 0.3 mm 2 m/s 546 mmHg 52%
    14:00 +18°C° 0.5 mm 2 m/s 545 mmHg 53%
    15:00 +18°C° 0.5 mm 3 m/s 545 mmHg 54%
    16:00 +18°C° 0.5 mm 3 m/s 544 mmHg 55%
    17:00 +16°C° 0.3 mm 2 m/s 544 mmHg 65%
    18:00 +14°C° 0.3 mm 2 m/s 543 mmHg 75%
    19:00 +12°C° 0.3 mm 1 m/s 542 mmHg 85%
    20:00 +12°C° 0 mm 1 m/s 543 mmHg 87%
    21:00 +11°C° 0 mm 1 m/s 543 mmHg 89%
    22:00 +10°C° 0 mm 1 m/s 543 mmHg 91%
    23:00 +9°C° 0 mm 0 m/s 543 mmHg 92%

    21 Iulie, Duminică

    Timp Temperatura Precipitaţii Vânt Presiune Umiditate
    00:00 +9°C° 0 mm 0 m/s 542 mmHg 92%
    01:00 +9°C° 0 mm 0 m/s 542 mmHg 92%
    02:00 +9°C° 0 mm 0 m/s 542 mmHg 91%
    03:00 +9°C° 0 mm 0 m/s 542 mmHg 90%
    04:00 +9°C° 0 mm 0 m/s 542 mmHg 89%
    05:00 +9°C° 0 mm 0 m/s 542 mmHg 87%
    06:00 +9°C° 0 mm 0 m/s 542 mmHg 85%
    07:00 +10°C° 0 mm 0 m/s 543 mmHg 83%
    08:00 +11°C° 0 mm 0 m/s 544 mmHg 74%
    09:00 +14°C° 0 mm 1 m/s 545 mmHg 66%
    10:00 +16°C° 0 mm 1 m/s 546 mmHg 57%
    11:00 +17°C° 0 mm 2 m/s 546 mmHg 52%
    12:00 +19°C° 0 mm 2 m/s 546 mmHg 47%
    13:00 +20°C° 0 mm 3 m/s 546 mmHg 42%
    14:00 +20°C° 0.1 mm 3 m/s 545 mmHg 42%
    15:00 +19°C° 0.1 mm 3 m/s 545 mmHg 43%
    16:00 +19°C° 0.1 mm 3 m/s 544 mmHg 44%
    17:00 +17°C° 0 mm 2 m/s 544 mmHg 55%
    18:00 +15°C° 0 mm 2 m/s 543 mmHg 66%
    19:00 +12°C° 0 mm 1 m/s 542 mmHg 78%
    20:00 +12°C° 0 mm 1 m/s 542 mmHg 82%
    21:00 +11°C° 0 mm 1 m/s 543 mmHg 86%
    22:00 +11°C° 0 mm 1 m/s 543 mmHg 90%
    23:00 +11°C° 0 mm 1 m/s 543 mmHg 90%
    Arată mai mult